Time,TemperatureF,DewpointF,PressureIn,WindDirection,WindDirectionDegrees,WindSpeedMPH,WindSpeedGustMPH,Humidity,HourlyPrecipIn,Conditions,Clouds,dailyrainin,SoftwareType,DateUTC
2013-08-10 00:00:00,81.2,79.3,30.01,North,32767,0.0,0.0,94,0.00,,,0.00,Wunderground v.1.15,2013-08-10 05:00:00,
2013-08-10 00:05:00,81.2,79.3,30.01,North,32767,0.0,0.0,94,0.00,,,0.00,Wunderground v.1.15,2013-08-10 05:05:00,
2013-08-10 00:10:00,81.2,79.3,30.01,North,32767,0.0,0.0,94,0.00,,,0.00,Wunderground v.1.15,2013-08-10 05:10:00,
2013-08-10 00:15:00,81.1,79.5,30.01,North,32767,0.0,0.0,95,0.00,,,0.00,Wunderground v.1.15,2013-08-10 05:15:00,
2013-08-10 00:20:00,81.0,79.4,30.01,North,32767,0.0,0.0,95,0.00,,,0.00,Wunderground v.1.15,2013-08-10 05:20:00,
2013-08-10 00:25:00,80.9,79.0,30.01,North,32767,0.0,0.0,94,0.00,,,0.00,Wunderground v.1.15,2013-08-10 05:25:00,
2013-08-10 00:30:00,80.8,78.9,30.01,North,32767,0.0,0.0,94,0.00,,,0.00,Wunderground v.1.15,2013-08-10 05:30:00,
2013-08-10 00:35:00,81.0,79.1,30.01,North,32767,0.0,0.0,94,0.00,,,0.00,Wunderground v.1.15,2013-08-10 05:35:00,
2013-08-10 00:45:00,81.4,79.2,30.01,North,32767,0.0,0.0,93,0.00,,,0.00,Wunderground v.1.15,2013-08-10 05:45:00,
2013-08-10 00:50:00,81.4,79.2,30.01,North,32767,0.0,0.0,93,0.00,,,0.00,Wunderground v.1.15,2013-08-10 05:50:00,
2013-08-10 00:55:00,81.4,78.9,30.00,North,32767,0.0,0.0,92,0.00,,,0.00,Wunderground v.1.15,2013-08-10 05:55:00,
2013-08-10 01:00:00,81.5,79.3,30.00,North,32767,0.0,0.0,93,0.00,,,0.00,Wunderground v.1.15,2013-08-10 06:00:00,
2013-08-10 01:05:00,81.6,79.0,30.00,North,32767,0.0,0.0,92,0.00,,,0.00,Wunderground v.1.15,2013-08-10 06:05:00,
2013-08-10 01:10:00,81.8,79.2,30.00,North,32767,0.0,0.0,92,0.00,,,0.00,Wunderground v.1.15,2013-08-10 06:10:00,
2013-08-10 01:15:00,81.8,79.2,30.00,North,32767,0.0,0.0,92,0.00,,,0.00,Wunderground v.1.15,2013-08-10 06:15:00,
2013-08-10 01:20:00,82.0,79.1,30.00,North,32767,0.0,0.0,91,0.00,,,0.00,Wunderground v.1.15,2013-08-10 06:20:00,
2013-08-10 01:25:00,82.1,79.2,30.00,North,32767,0.0,0.0,91,0.00,,,0.00,Wunderground v.1.15,2013-08-10 06:25:00,
2013-08-10 01:30:00,82.1,79.2,30.00,North,32767,0.0,0.0,91,0.00,,,0.00,Wunderground v.1.15,2013-08-10 06:30:00,
2013-08-10 01:35:00,82.2,79.3,30.00,North,32767,0.0,0.0,91,0.00,,,0.00,Wunderground v.1.15,2013-08-10 06:35:00,
2013-08-10 01:40:00,82.3,79.7,30.00,North,32767,0.0,0.0,92,0.00,,,0.00,Wunderground v.1.15,2013-08-10 06:40:00,
2013-08-10 01:45:00,82.4,79.8,30.00,North,32767,0.0,0.0,92,0.00,,,0.00,Wunderground v.1.15,2013-08-10 06:45:00,
2013-08-10 01:50:00,82.5,79.9,30.00,North,32767,0.0,0.0,92,0.00,,,0.00,Wunderground v.1.15,2013-08-10 06:50:00,
2013-08-10 01:55:00,82.6,80.0,30.00,North,32767,0.0,0.0,92,0.00,,,0.00,Wunderground v.1.15,2013-08-10 06:55:00,
2013-08-10 02:00:00,82.7,80.1,30.00,North,32767,0.0,0.0,92,0.00,,,0.00,Wunderground v.1.15,2013-08-10 07:00:00,
2013-08-10 02:05:00,82.9,80.0,29.99,North,32767,0.0,0.0,91,0.00,,,0.00,Wunderground v.1.15,2013-08-10 07:05:00,
2013-08-10 02:10:00,82.9,80.0,29.99,North,32767,0.0,0.0,91,0.00,,,0.00,Wunderground v.1.15,2013-08-10 07:10:00,
2013-08-10 02:15:00,83.0,80.1,29.99,North,32767,0.0,0.0,91,0.00,,,0.00,Wunderground v.1.15,2013-08-10 07:15:00,
2013-08-10 02:20:00,82.9,79.3,29.99,North,32767,0.0,0.0,89,0.00,,,0.00,Wunderground v.1.15,2013-08-10 07:20:00,
2013-08-10 02:25:00,83.0,78.7,29.99,North,32767,0.0,0.0,87,0.00,,,0.00,Wunderground v.1.15,2013-08-10 07:25:00,
2013-08-10 02:30:00,83.0,78.7,29.99,North,32767,0.0,0.0,87,0.00,,,0.00,Wunderground v.1.15,2013-08-10 07:30:00,
2013-08-10 02:35:00,82.9,79.0,29.99,North,32767,0.0,0.0,88,0.00,,,0.00,Wunderground v.1.15,2013-08-10 07:35:00,
2013-08-10 02:40:00,82.8,78.9,29.99,North,32767,0.0,0.0,88,0.00,,,0.00,Wunderground v.1.15,2013-08-10 07:40:00,
2013-08-10 02:45:00,82.7,78.8,29.99,North,32767,0.0,0.0,88,0.00,,,0.00,Wunderground v.1.15,2013-08-10 07:45:00,
2013-08-10 02:50:00,82.6,79.0,29.99,North,32767,0.0,0.0,89,0.00,,,0.00,Wunderground v.1.15,2013-08-10 07:50:00,
2013-08-10 02:55:00,82.5,79.3,29.99,North,32767,0.0,0.0,90,0.00,,,0.00,Wunderground v.1.15,2013-08-10 07:55:00,
2013-08-10 03:00:00,82.5,79.3,29.99,North,32767,0.0,0.0,90,0.00,,,0.00,Wunderground v.1.15,2013-08-10 08:00:00,
2013-08-10 03:05:00,82.5,79.3,29.99,North,32767,0.0,0.0,90,0.00,,,0.00,Wunderground v.1.15,2013-08-10 08:05:00,
2013-08-10 03:10:00,82.4,79.5,29.99,North,32767,0.0,0.0,91,0.00,,,0.00,Wunderground v.1.15,2013-08-10 08:10:00,
2013-08-10 03:15:00,82.3,79.4,29.99,North,32767,0.0,0.0,91,0.00,,,0.00,Wunderground v.1.15,2013-08-10 08:15:00,
2013-08-10 03:20:00,82.4,79.8,29.99,North,32767,0.0,0.0,92,0.00,,,0.00,Wunderground v.1.15,2013-08-10 08:20:00,
2013-08-10 03:25:00,82.5,79.6,29.99,North,32767,0.0,0.0,91,0.00,,,0.00,Wunderground v.1.15,2013-08-10 08:25:00,
2013-08-10 03:30:00,82.5,79.3,29.99,North,32767,0.0,0.0,90,0.00,,,0.00,Wunderground v.1.15,2013-08-10 08:30:00,
2013-08-10 03:35:00,82.5,79.3,29.99,North,32767,0.0,0.0,90,0.00,,,0.00,Wunderground v.1.15,2013-08-10 08:35:00,
2013-08-10 03:40:00,82.6,79.4,30.00,North,32767,0.0,0.0,90,0.00,,,0.00,Wunderground v.1.15,2013-08-10 08:40:00,
2013-08-10 03:50:00,82.7,79.8,30.00,North,32767,0.0,0.0,91,0.00,,,0.00,Wunderground v.1.15,2013-08-10 08:50:00,
2013-08-10 03:55:00,82.7,79.5,30.00,North,32767,0.0,0.0,90,0.00,,,0.00,Wunderground v.1.15,2013-08-10 08:55:00,
2013-08-10 04:00:00,82.7,79.5,30.00,North,32767,0.0,0.0,90,0.00,,,0.00,Wunderground v.1.15,2013-08-10 09:00:00,
2013-08-10 04:05:00,82.7,79.5,30.00,North,32767,0.0,0.0,90,0.00,,,0.00,Wunderground v.1.15,2013-08-10 09:05:00,
2013-08-10 04:10:00,82.7,79.5,30.00,North,32767,0.0,0.0,90,0.00,,,0.00,Wunderground v.1.15,2013-08-10 09:10:00,
2013-08-10 04:15:00,82.8,79.2,30.00,North,32767,0.0,0.0,89,0.00,,,0.00,Wunderground v.1.15,2013-08-10 09:15:00,
2013-08-10 04:20:00,82.8,79.2,30.00,North,32767,0.0,0.0,89,0.00,,,0.00,Wunderground v.1.15,2013-08-10 09:20:00,
2013-08-10 04:25:00,82.7,79.1,30.00,North,32767,0.0,0.0,89,0.00,,,0.00,Wunderground v.1.15,2013-08-10 09:25:00,
2013-08-10 04:35:00,82.6,79.4,30.00,North,32767,0.0,0.0,90,0.00,,,0.00,Wunderground v.1.15,2013-08-10 09:35:00,
2013-08-10 04:40:00,82.6,79.0,30.00,North,32767,0.0,0.0,89,0.00,,,0.00,Wunderground v.1.15,2013-08-10 09:40:00,
2013-08-10 04:45:00,82.6,79.4,30.00,North,32767,0.0,0.0,90,0.00,,,0.00,Wunderground v.1.15,2013-08-10 09:45:00,
2013-08-10 04:50:00,82.5,79.3,30.00,North,32767,0.0,0.0,90,0.00,,,0.00,Wunderground v.1.15,2013-08-10 09:50:00,
2013-08-10 04:55:00,82.4,79.5,30.00,North,32767,0.0,0.0,91,0.00,,,0.00,Wunderground v.1.15,2013-08-10 09:55:00,
2013-08-10 05:00:00,82.3,79.4,30.00,North,32767,0.0,0.0,91,0.00,,,0.00,Wunderground v.1.15,2013-08-10 10:00:00,
2013-08-10 05:05:00,82.3,79.1,30.01,North,32767,0.0,0.0,90,0.00,,,0.00,Wunderground v.1.15,2013-08-10 10:05:00,
2013-08-10 05:15:00,82.1,79.2,30.01,North,32767,0.0,0.0,91,0.00,,,0.00,Wunderground v.1.15,2013-08-10 10:15:00,
2013-08-10 05:20:00,82.0,79.1,30.01,North,32767,0.0,0.0,91,0.00,,,0.00,Wunderground v.1.15,2013-08-10 10:20:00,
2013-08-10 05:25:00,81.9,79.0,30.01,North,32767,0.0,0.0,91,0.00,,,0.00,Wunderground v.1.15,2013-08-10 10:25:00,
2013-08-10 05:30:00,81.8,78.9,30.01,North,32767,0.0,0.0,91,0.00,,,0.00,Wunderground v.1.15,2013-08-10 10:30:00,
2013-08-10 05:35:00,81.8,79.2,30.01,North,32767,0.0,0.0,92,0.00,,,0.00,Wunderground v.1.15,2013-08-10 10:35:00,
2013-08-10 05:40:00,81.8,79.2,30.01,North,32767,0.0,0.0,92,0.00,,,0.00,Wunderground v.1.15,2013-08-10 10:40:00,
2013-08-10 05:45:00,81.7,79.1,30.01,North,32767,0.0,0.0,92,0.00,,,0.00,Wunderground v.1.15,2013-08-10 10:45:00,
2013-08-10 05:50:00,81.6,79.0,30.01,North,32767,0.0,0.0,92,0.00,,,0.00,Wunderground v.1.15,2013-08-10 10:50:00,
2013-08-10 05:55:00,81.6,79.0,30.01,North,32767,0.0,0.0,92,0.00,,,0.00,Wunderground v.1.15,2013-08-10 10:55:00,
2013-08-10 06:00:00,81.7,79.1,30.01,North,32767,0.0,0.0,92,0.00,,,0.00,Wunderground v.1.15,2013-08-10 11:00:00,
2013-08-10 06:05:00,81.8,79.2,30.01,North,32767,0.0,0.0,92,0.00,,,0.00,Wunderground v.1.15,2013-08-10 11:05:00,
2013-08-10 06:10:00,81.9,79.3,30.02,North,32767,0.0,0.0,92,0.00,,,0.00,Wunderground v.1.15,2013-08-10 11:10:00,
2013-08-10 06:15:00,81.9,79.3,30.01,North,32767,0.0,0.0,92,0.00,,,0.00,Wunderground v.1.15,2013-08-10 11:15:00,
2013-08-10 06:20:00,82.0,79.1,30.02,North,32767,0.0,0.0,91,0.00,,,0.00,Wunderground v.1.15,2013-08-10 11:20:00,
2013-08-10 06:25:00,82.1,79.2,30.02,North,32767,0.0,0.0,91,0.00,,,0.00,Wunderground v.1.15,2013-08-10 11:25:00,
2013-08-10 06:30:00,82.3,79.1,30.02,North,32767,0.0,0.0,90,0.00,,,0.00,Wunderground v.1.15,2013-08-10 11:30:00,
2013-08-10 06:35:00,82.4,78.8,30.02,North,32767,0.0,0.0,89,0.00,,,0.00,Wunderground v.1.15,2013-08-10 11:35:00,
2013-08-10 06:40:00,82.4,78.8,30.02,North,32767,0.0,0.0,89,0.00,,,0.00,Wunderground v.1.15,2013-08-10 11:40:00,
2013-08-10 06:45:00,82.4,78.8,30.02,North,32767,0.0,0.0,89,0.00,,,0.00,Wunderground v.1.15,2013-08-10 11:45:00,
2013-08-10 06:50:00,82.4,78.8,30.02,North,32767,0.0,0.0,89,0.00,,,0.00,Wunderground v.1.15,2013-08-10 11:50:00,
2013-08-10 06:55:00,82.5,78.9,30.02,North,32767,0.0,0.0,89,0.00,,,0.00,Wunderground v.1.15,2013-08-10 11:55:00,
2013-08-10 07:00:00,82.5,78.9,30.02,North,32767,0.0,0.0,89,0.00,,,0.00,Wunderground v.1.15,2013-08-10 12:00:00,
2013-08-10 07:05:00,82.4,78.8,30.02,North,32767,0.0,0.0,89,0.00,,,0.00,Wunderground v.1.15,2013-08-10 12:05:00,
2013-08-10 07:10:00,82.4,79.2,30.02,North,32767,0.0,0.0,90,0.00,,,0.00,Wunderground v.1.15,2013-08-10 12:10:00,
2013-08-10 07:15:00,82.5,79.3,30.02,North,32767,0.0,0.0,90,0.00,,,0.00,Wunderground v.1.15,2013-08-10 12:15:00,
2013-08-10 07:20:00,82.7,79.1,30.02,North,32767,0.0,0.0,89,0.00,,,0.00,Wunderground v.1.15,2013-08-10 12:20:00,
2013-08-10 07:25:00,82.9,79.0,30.02,North,32767,0.0,0.0,88,0.00,,,0.00,Wunderground v.1.15,2013-08-10 12:25:00,
2013-08-10 07:30:00,83.1,78.8,30.02,North,32767,0.0,0.0,87,0.00,,,0.00,Wunderground v.1.15,2013-08-10 12:30:00,
2013-08-10 07:35:00,83.2,78.6,30.02,North,32767,0.0,0.0,86,0.00,,,0.00,Wunderground v.1.15,2013-08-10 12:35:00,
2013-08-10 07:40:00,83.4,79.1,30.02,North,32767,0.0,0.0,87,0.00,,,0.00,Wunderground v.1.15,2013-08-10 12:40:00,
2013-08-10 07:45:00,83.7,79.4,30.02,North,32767,0.0,0.0,87,0.00,,,0.00,Wunderground v.1.15,2013-08-10 12:45:00,
2013-08-10 07:50:00,84.0,79.4,30.03,North,32767,0.0,0.0,86,0.00,,,0.00,Wunderground v.1.15,2013-08-10 12:50:00,
2013-08-10 07:55:00,84.3,79.7,30.03,North,32767,0.0,0.0,86,0.00,,,0.00,Wunderground v.1.15,2013-08-10 12:55:00,
2013-08-10 08:05:00,84.3,79.7,30.03,North,32767,0.0,0.0,86,0.00,,,0.00,Wunderground v.1.15,2013-08-10 13:05:00,
2013-08-10 08:10:00,84.3,79.7,30.03,North,32767,0.0,0.0,86,0.00,,,0.00,Wunderground v.1.15,2013-08-10 13:10:00,
2013-08-10 08:20:00,84.2,79.9,30.04,North,32767,0.0,0.0,87,0.00,,,0.00,Wunderground v.1.15,2013-08-10 13:20:00,
2013-08-10 08:25:00,84.4,79.7,30.04,North,32767,0.0,0.0,86,0.00,,,0.00,Wunderground v.1.15,2013-08-10 13:25:00,
2013-08-10 08:30:00,84.5,80.2,30.04,North,32767,0.0,0.0,87,0.00,,,0.00,Wunderground v.1.15,2013-08-10 13:30:00,
2013-08-10 08:35:00,84.7,80.0,30.04,North,32767,0.0,0.0,86,0.00,,,0.00,Wunderground v.1.15,2013-08-10 13:35:00,
2013-08-10 08:40:00,84.8,80.1,30.04,North,32767,0.0,0.0,86,0.00,,,0.00,Wunderground v.1.15,2013-08-10 13:40:00,
2013-08-10 08:45:00,85.0,80.7,30.04,North,32767,0.0,0.0,87,0.00,,,0.00,Wunderground v.1.15,2013-08-10 13:45:00,
2013-08-10 08:50:00,85.0,80.3,30.04,North,32767,0.0,0.0,86,0.00,,,0.00,Wunderground v.1.15,2013-08-10 13:50:00,
2013-08-10 08:55:00,84.9,80.2,30.04,North,32767,0.0,0.0,86,0.00,,,0.00,Wunderground v.1.15,2013-08-10 13:55:00,
2013-08-10 09:00:00,84.9,80.2,30.04,North,32767,0.0,0.0,86,0.00,,,0.00,Wunderground v.1.15,2013-08-10 14:00:00,
2013-08-10 09:05:00,85.0,80.7,30.04,North,32767,0.0,0.0,87,0.00,,,0.00,Wunderground v.1.15,2013-08-10 14:05:00,
2013-08-10 09:10:00,85.1,80.4,30.04,North,32767,0.0,0.0,86,0.00,,,0.00,Wunderground v.1.15,2013-08-10 14:10:00,
2013-08-10 09:15:00,85.1,80.8,30.04,North,32767,0.0,0.0,87,0.00,,,0.00,Wunderground v.1.15,2013-08-10 14:15:00,
2013-08-10 09:20:00,85.2,80.9,30.04,North,32767,0.0,0.0,87,0.00,,,0.00,Wunderground v.1.15,2013-08-10 14:20:00,
2013-08-10 09:25:00,85.6,80.9,30.04,North,32767,0.0,0.0,86,0.00,,,0.00,Wunderground v.1.15,2013-08-10 14:25:00,
2013-08-10 09:30:00,85.7,80.7,30.04,North,32767,0.0,0.0,85,0.00,,,0.00,Wunderground v.1.15,2013-08-10 14:30:00,
2013-08-10 09:35:00,85.8,81.1,30.04,North,32767,0.0,0.0,86,0.00,,,0.00,Wunderground v.1.15,2013-08-10 14:35:00,
2013-08-10 09:40:00,86.0,81.3,30.05,North,32767,0.0,0.0,86,0.00,,,0.00,Wunderground v.1.15,2013-08-10 14:40:00,
2013-08-10 09:45:00,86.0,81.0,30.05,North,32767,0.0,0.0,85,0.00,,,0.00,Wunderground v.1.15,2013-08-10 14:45:00,
2013-08-10 09:50:00,85.9,80.9,30.05,North,32767,0.0,0.0,85,0.00,,,0.00,Wunderground v.1.15,2013-08-10 14:50:00,
2013-08-10 09:55:00,86.2,80.8,30.05,North,32767,0.0,0.0,84,0.00,,,0.00,Wunderground v.1.15,2013-08-10 14:55:00,
2013-08-10 10:00:00,86.7,81.3,30.05,North,32767,0.0,0.0,84,0.00,,,0.00,Wunderground v.1.15,2013-08-10 15:00:00,
2013-08-10 10:05:00,87.3,80.8,30.05,North,32767,0.0,0.0,81,0.00,,,0.00,Wunderground v.1.15,2013-08-10 15:05:00,
2013-08-10 10:10:00,87.5,80.9,30.06,North,32767,0.0,0.0,81,0.00,,,0.00,Wunderground v.1.15,2013-08-10 15:10:00,
2013-08-10 10:15:00,87.7,81.1,30.06,North,32767,0.0,0.0,81,0.00,,,0.00,Wunderground v.1.15,2013-08-10 15:15:00,
2013-08-10 10:20:00,87.5,80.6,30.06,North,32767,0.0,0.0,80,0.00,,,0.00,Wunderground v.1.15,2013-08-10 15:20:00,
2013-08-10 10:25:00,87.6,81.0,30.06,North,32767,0.0,0.0,81,0.00,,,0.00,Wunderground v.1.15,2013-08-10 15:25:00,
2013-08-10 10:30:00,87.9,81.3,30.06,North,32767,0.0,0.0,81,0.00,,,0.00,Wunderground v.1.15,2013-08-10 15:30:00,
2013-08-10 10:35:00,87.9,81.0,30.06,North,32767,0.0,0.0,80,0.00,,,0.00,Wunderground v.1.15,2013-08-10 15:35:00,
2013-08-10 10:40:00,87.8,80.9,30.07,North,32767,0.0,0.0,80,0.00,,,0.00,Wunderground v.1.15,2013-08-10 15:40:00,
2013-08-10 10:45:00,87.7,81.1,30.07,North,32767,0.0,0.0,81,0.00,,,0.00,Wunderground v.1.15,2013-08-10 15:45:00,
2013-08-10 10:50:00,88.2,81.2,30.07,North,32767,0.0,0.0,80,0.00,,,0.00,Wunderground v.1.15,2013-08-10 15:50:00,
2013-08-10 11:00:00,88.4,80.7,30.07,North,32767,0.0,0.0,78,0.00,,,0.00,Wunderground v.1.15,2013-08-10 16:00:00,
2013-08-10 11:05:00,88.5,81.5,30.07,North,32767,0.0,0.0,80,0.00,,,0.00,Wunderground v.1.15,2013-08-10 16:05:00,
2013-08-10 11:15:00,88.5,81.5,30.07,North,32767,0.0,0.0,80,0.00,,,0.00,Wunderground v.1.15,2013-08-10 16:15:00,
2013-08-10 11:20:00,88.6,81.2,30.07,North,32767,0.0,0.0,79,0.00,,,0.00,Wunderground v.1.15,2013-08-10 16:20:00,
2013-08-10 11:25:00,88.5,81.5,30.07,North,32767,0.0,0.0,80,0.00,,,0.00,Wunderground v.1.15,2013-08-10 16:25:00,
2013-08-10 11:30:00,88.8,82.2,30.07,North,32767,0.0,0.0,81,0.00,,,0.00,Wunderground v.1.15,2013-08-10 16:30:00,
2013-08-10 11:35:00,89.1,82.1,30.07,North,32767,0.0,0.0,80,0.00,,,0.00,Wunderground v.1.15,2013-08-10 16:35:00,
2013-08-10 11:40:00,89.0,82.0,30.07,North,32767,0.0,0.0,80,0.00,,,0.00,Wunderground v.1.15,2013-08-10 16:40:00,
2013-08-10 11:45:00,89.1,81.7,30.07,North,32767,0.0,0.0,79,0.00,,,0.00,Wunderground v.1.15,2013-08-10 16:45:00,
2013-08-10 11:50:00,89.3,82.3,30.07,North,32767,0.0,0.0,80,0.00,,,0.00,Wunderground v.1.15,2013-08-10 16:50:00,
2013-08-10 11:55:00,89.4,81.6,30.07,North,32767,0.0,0.0,78,0.00,,,0.00,Wunderground v.1.15,2013-08-10 16:55:00,
2013-08-10 12:00:00,89.4,81.6,30.07,North,32767,0.0,0.0,78,0.00,,,0.00,Wunderground v.1.15,2013-08-10 17:00:00,
2013-08-10 12:05:00,89.4,82.0,30.07,North,32767,0.0,0.0,79,0.00,,,0.00,Wunderground v.1.15,2013-08-10 17:05:00,
2013-08-10 12:10:00,89.5,82.1,30.07,North,32767,0.0,0.0,79,0.00,,,0.00,Wunderground v.1.15,2013-08-10 17:10:00,
2013-08-10 12:15:00,90.1,82.3,30.07,North,32767,0.0,0.0,78,0.00,,,0.00,Wunderground v.1.15,2013-08-10 17:15:00,
2013-08-10 12:20:00,90.4,81.8,30.07,North,32767,0.0,0.0,76,0.00,,,0.00,Wunderground v.1.15,2013-08-10 17:20:00,
2013-08-10 12:25:00,90.0,81.8,30.07,North,32767,0.0,0.0,77,0.00,,,0.00,Wunderground v.1.15,2013-08-10 17:25:00,
2013-08-10 12:30:00,89.5,81.3,30.07,North,32767,0.0,0.0,77,0.00,,,0.00,Wunderground v.1.15,2013-08-10 17:30:00,
2013-08-10 12:35:00,88.7,81.0,30.07,North,32767,0.0,0.0,78,0.00,,,0.00,Wunderground v.1.15,2013-08-10 17:35:00,
2013-08-10 12:40:00,88.1,80.4,30.07,North,32767,0.0,0.0,78,0.00,,,0.00,Wunderground v.1.15,2013-08-10 17:40:00,
2013-08-10 12:45:00,87.6,81.0,30.07,North,32767,0.0,0.0,81,0.00,,,0.00,Wunderground v.1.15,2013-08-10 17:45:00,
2013-08-10 12:50:00,87.3,80.4,30.06,North,32767,0.0,0.0,80,0.00,,,0.00,Wunderground v.1.15,2013-08-10 17:50:00,
2013-08-10 12:55:00,87.1,80.6,30.06,North,32767,0.0,0.0,81,0.00,,,0.00,Wunderground v.1.15,2013-08-10 17:55:00,
2013-08-10 13:00:00,86.9,80.4,30.06,North,32767,0.0,0.0,81,0.00,,,0.00,Wunderground v.1.15,2013-08-10 18:00:00,
2013-08-10 13:05:00,87.1,80.6,30.06,North,32767,0.0,0.0,81,0.00,,,0.00,Wunderground v.1.15,2013-08-10 18:05:00,
2013-08-10 13:10:00,87.3,81.1,30.05,North,32767,0.0,0.0,82,0.00,,,0.00,Wunderground v.1.15,2013-08-10 18:10:00,
2013-08-10 13:15:00,87.5,81.7,30.05,North,32767,0.0,0.0,83,0.00,,,0.00,Wunderground v.1.15,2013-08-10 18:15:00,
2013-08-10 13:20:00,88.1,81.9,30.05,North,32767,0.0,0.0,82,0.00,,,0.00,Wunderground v.1.15,2013-08-10 18:20:00,
2013-08-10 13:25:00,88.4,82.2,30.05,North,32767,0.0,0.0,82,0.00,,,0.00,Wunderground v.1.15,2013-08-10 18:25:00,
2013-08-10 13:30:00,88.8,81.8,30.05,North,32767,0.0,0.0,80,0.00,,,0.00,Wunderground v.1.15,2013-08-10 18:30:00,
2013-08-10 13:35:00,89.2,83.0,30.05,North,32767,0.0,0.0,82,0.00,,,0.00,Wunderground v.1.15,2013-08-10 18:35:00,
2013-08-10 13:40:00,89.4,82.0,30.05,North,32767,0.0,0.0,79,0.00,,,0.00,Wunderground v.1.15,2013-08-10 18:40:00,
2013-08-10 13:45:00,89.1,82.5,30.05,North,32767,0.0,0.0,81,0.00,,,0.00,Wunderground v.1.15,2013-08-10 18:45:00,
2013-08-10 13:50:00,89.0,82.0,30.05,North,32767,0.0,0.0,80,0.00,,,0.00,Wunderground v.1.15,2013-08-10 18:50:00,
2013-08-10 13:55:00,88.7,82.1,30.04,North,32767,0.0,0.0,81,0.00,,,0.00,Wunderground v.1.15,2013-08-10 18:55:00,
2013-08-10 14:00:00,89.0,83.2,30.04,North,32767,0.0,0.0,83,0.00,,,0.00,Wunderground v.1.15,2013-08-10 19:00:00,
2013-08-10 14:05:00,89.0,82.0,30.04,North,32767,0.0,0.0,80,0.00,,,0.00,Wunderground v.1.15,2013-08-10 19:05:00,
2013-08-10 14:10:00,89.0,82.4,30.03,North,32767,0.0,0.0,81,0.00,,,0.00,Wunderground v.1.15,2013-08-10 19:10:00,
2013-08-10 14:15:00,89.2,82.2,30.03,North,32767,0.0,0.0,80,0.00,,,0.00,Wunderground v.1.15,2013-08-10 19:15:00,
2013-08-10 14:20:00,89.0,82.8,30.03,North,32767,0.0,0.0,82,0.00,,,0.00,Wunderground v.1.15,2013-08-10 19:20:00,
2013-08-10 14:25:00,89.0,83.2,30.03,North,32767,0.0,0.0,83,0.00,,,0.00,Wunderground v.1.15,2013-08-10 19:25:00,
2013-08-10 14:30:00,88.7,82.5,30.03,North,32767,0.0,0.0,82,0.00,,,0.00,Wunderground v.1.15,2013-08-10 19:30:00,
2013-08-10 14:35:00,88.3,82.1,30.03,North,32767,0.0,0.0,82,0.00,,,0.00,Wunderground v.1.15,2013-08-10 19:35:00,
2013-08-10 14:40:00,88.1,82.7,30.03,North,32767,0.0,0.0,84,0.00,,,0.00,Wunderground v.1.15,2013-08-10 19:40:00,
2013-08-10 14:45:00,87.9,81.7,30.03,North,32767,0.0,0.0,82,0.00,,,0.00,Wunderground v.1.15,2013-08-10 19:45:00,
2013-08-10 14:50:00,87.8,81.2,30.03,North,32767,0.0,0.0,81,0.00,,,0.00,Wunderground v.1.15,2013-08-10 19:50:00,
2013-08-10 14:55:00,87.7,81.9,30.03,North,32767,0.0,0.0,83,0.00,,,0.00,Wunderground v.1.15,2013-08-10 19:55:00,
2013-08-10 15:00:00,87.7,81.5,30.03,North,32767,0.0,0.0,82,0.00,,,0.00,Wunderground v.1.15,2013-08-10 20:00:00,
2013-08-10 15:05:00,87.8,81.6,30.04,North,32767,0.0,0.0,82,0.00,,,0.00,Wunderground v.1.15,2013-08-10 20:05:00,
2013-08-10 15:10:00,87.9,81.7,30.04,North,32767,0.0,0.0,82,0.00,,,0.00,Wunderground v.1.15,2013-08-10 20:10:00,
2013-08-10 15:15:00,87.9,80.6,30.04,North,32767,0.0,0.0,79,0.00,,,0.00,Wunderground v.1.15,2013-08-10 20:15:00,
2013-08-10 15:20:00,88.0,81.0,30.04,North,32767,0.0,0.0,80,0.00,,,0.00,Wunderground v.1.15,2013-08-10 20:20:00,
2013-08-10 15:25:00,88.0,80.3,30.04,North,32767,0.0,0.0,78,0.00,,,0.00,Wunderground v.1.15,2013-08-10 20:25:00,
2013-08-10 15:30:00,87.8,80.5,30.03,North,32767,0.0,0.0,79,0.00,,,0.00,Wunderground v.1.15,2013-08-10 20:30:00,
2013-08-10 15:35:00,87.7,80.4,30.03,North,32767,0.0,0.0,79,0.00,,,0.00,Wunderground v.1.15,2013-08-10 20:35:00,
2013-08-10 15:40:00,87.9,80.6,30.03,North,32767,0.0,0.0,79,0.00,,,0.00,Wunderground v.1.15,2013-08-10 20:40:00,
2013-08-10 15:45:00,87.8,80.5,30.03,North,32767,0.0,0.0,79,0.00,,,0.00,Wunderground v.1.15,2013-08-10 20:45:00,
2013-08-10 15:50:00,87.7,79.6,30.03,North,32767,0.0,0.0,77,0.00,,,0.00,Wunderground v.1.15,2013-08-10 20:50:00,
2013-08-10 15:55:00,87.4,79.7,30.02,North,32767,0.0,0.0,78,0.00,,,0.00,Wunderground v.1.15,2013-08-10 20:55:00,
2013-08-10 16:00:00,87.4,78.5,30.02,North,32767,0.0,0.0,75,0.00,,,0.00,Wunderground v.1.15,2013-08-10 21:00:00,
2013-08-10 16:05:00,87.5,79.4,30.02,North,32767,0.0,0.0,77,0.00,,,0.00,Wunderground v.1.15,2013-08-10 21:05:00,
2013-08-10 16:15:00,87.6,79.1,30.02,North,32767,0.0,0.0,76,0.00,,,0.00,Wunderground v.1.15,2013-08-10 21:15:00,
2013-08-10 16:20:00,87.3,79.2,30.02,North,32767,0.0,0.0,77,0.00,,,0.00,Wunderground v.1.15,2013-08-10 21:20:00,
2013-08-10 16:25:00,87.1,79.0,30.02,North,32767,0.0,0.0,77,0.00,,,0.00,Wunderground v.1.15,2013-08-10 21:25:00,
2013-08-10 16:30:00,87.1,78.6,30.02,North,32767,0.0,0.0,76,0.00,,,0.00,Wunderground v.1.15,2013-08-10 21:30:00,
2013-08-10 16:35:00,87.0,78.9,30.02,North,32767,0.0,0.0,77,0.00,,,0.00,Wunderground v.1.15,2013-08-10 21:35:00,
2013-08-10 16:40:00,87.0,80.1,30.02,North,32767,0.0,0.0,80,0.00,,,0.00,Wunderground v.1.15,2013-08-10 21:40:00,
2013-08-10 16:45:00,87.2,80.3,30.02,North,32767,0.0,0.0,80,0.00,,,0.00,Wunderground v.1.15,2013-08-10 21:45:00,
2013-08-10 16:50:00,87.0,80.1,30.02,North,32767,0.0,0.0,80,0.00,,,0.00,Wunderground v.1.15,2013-08-10 21:50:00,
2013-08-10 16:55:00,86.8,79.5,30.02,North,32767,0.0,0.0,79,0.00,,,0.00,Wunderground v.1.15,2013-08-10 21:55:00,
2013-08-10 17:00:00,86.5,79.6,30.02,North,32767,0.0,0.0,80,0.00,,,0.00,Wunderground v.1.15,2013-08-10 22:00:00,
2013-08-10 17:05:00,86.3,79.4,30.02,North,32767,0.0,0.0,80,0.00,,,0.00,Wunderground v.1.15,2013-08-10 22:05:00,
2013-08-10 17:10:00,86.1,79.6,30.02,North,32767,0.0,0.0,81,0.00,,,0.00,Wunderground v.1.15,2013-08-10 22:10:00,
2013-08-10 17:15:00,86.0,80.2,30.02,North,32767,0.0,0.0,83,0.00,,,0.00,Wunderground v.1.15,2013-08-10 22:15:00,
2013-08-10 17:20:00,85.8,80.0,30.02,North,32767,0.0,0.0,83,0.00,,,0.00,Wunderground v.1.15,2013-08-10 22:20:00,
2013-08-10 17:25:00,85.6,79.8,30.02,North,32767,0.0,0.0,83,0.00,,,0.00,Wunderground v.1.15,2013-08-10 22:25:00,
2013-08-10 17:30:00,85.4,79.6,30.02,North,32767,0.0,0.0,83,0.00,,,0.00,Wunderground v.1.15,2013-08-10 22:30:00,
2013-08-10 17:35:00,85.3,79.2,30.02,North,32767,0.0,0.0,82,0.00,,,0.00,Wunderground v.1.15,2013-08-10 22:35:00,
2013-08-10 17:40:00,85.2,78.3,30.02,North,32767,0.0,0.0,80,0.00,,,0.00,Wunderground v.1.15,2013-08-10 22:40:00,
2013-08-10 17:45:00,85.3,78.4,30.02,North,32767,0.0,0.0,80,0.00,,,0.00,Wunderground v.1.15,2013-08-10 22:45:00,
2013-08-10 17:50:00,85.4,78.9,30.02,North,32767,0.0,0.0,81,0.00,,,0.00,Wunderground v.1.15,2013-08-10 22:50:00,
2013-08-10 17:55:00,85.5,79.0,30.02,North,32767,0.0,0.0,81,0.00,,,0.00,Wunderground v.1.15,2013-08-10 22:55:00,
2013-08-10 18:00:00,85.5,79.0,30.02,North,32767,0.0,0.0,81,0.00,,,0.00,Wunderground v.1.15,2013-08-10 23:00:00,
2013-08-10 18:05:00,85.6,79.5,30.01,North,32767,0.0,0.0,82,0.00,,,0.00,Wunderground v.1.15,2013-08-10 23:05:00,
2013-08-10 18:15:00,85.6,79.5,30.02,North,32767,0.0,0.0,82,0.00,,,0.00,Wunderground v.1.15,2013-08-10 23:15:00,
2013-08-10 18:20:00,85.5,79.0,30.02,North,32767,0.0,0.0,81,0.00,,,0.00,Wunderground v.1.15,2013-08-10 23:20:00,
2013-08-10 18:25:00,85.4,79.3,30.02,North,32767,0.0,0.0,82,0.00,,,0.00,Wunderground v.1.15,2013-08-10 23:25:00,
2013-08-10 18:35:00,85.2,79.1,30.02,North,32767,0.0,0.0,82,0.00,,,0.00,Wunderground v.1.15,2013-08-10 23:35:00,
2013-08-10 18:40:00,85.0,78.9,30.02,North,32767,0.0,0.0,82,0.00,,,0.00,Wunderground v.1.15,2013-08-10 23:40:00,
2013-08-10 18:45:00,84.8,78.7,30.03,North,32767,0.0,0.0,82,0.00,,,0.00,Wunderground v.1.15,2013-08-10 23:45:00,
2013-08-10 18:50:00,84.6,78.9,30.03,North,32767,0.0,0.0,83,0.00,,,0.00,Wunderground v.1.15,2013-08-10 23:50:00,
2013-08-10 18:55:00,84.5,79.1,30.03,North,32767,0.0,0.0,84,0.00,,,0.00,Wunderground v.1.15,2013-08-10 23:55:00,
2013-08-10 19:00:00,84.3,78.9,30.03,North,32767,0.0,0.0,84,0.00,,,0.00,Wunderground v.1.15,2013-08-11 00:00:00,
2013-08-10 19:05:00,84.1,78.7,30.03,North,32767,0.0,0.0,84,0.00,,,0.00,Wunderground v.1.15,2013-08-11 00:05:00,
2013-08-10 19:10:00,84.0,78.6,30.03,North,32767,0.0,0.0,84,0.00,,,0.00,Wunderground v.1.15,2013-08-11 00:10:00,
2013-08-10 19:15:00,83.9,78.5,30.04,North,32767,0.0,0.0,84,0.00,,,0.00,Wunderground v.1.15,2013-08-11 00:15:00,
2013-08-10 19:20:00,83.9,78.5,30.04,North,32767,0.0,0.0,84,0.00,,,0.00,Wunderground v.1.15,2013-08-11 00:20:00,
2013-08-10 19:25:00,83.7,78.3,30.04,North,32767,0.0,0.0,84,0.00,,,0.00,Wunderground v.1.15,2013-08-11 00:25:00,
2013-08-10 19:30:00,83.6,78.2,30.04,North,32767,0.0,0.0,84,0.00,,,0.00,Wunderground v.1.15,2013-08-11 00:30:00,
2013-08-10 19:35:00,83.5,78.5,30.04,North,32767,0.0,0.0,85,0.00,,,0.00,Wunderground v.1.15,2013-08-11 00:35:00,
2013-08-10 19:40:00,83.5,78.9,30.04,North,32767,0.0,0.0,86,0.00,,,0.00,Wunderground v.1.15,2013-08-11 00:40:00,
2013-08-10 19:45:00,83.4,78.8,30.04,North,32767,0.0,0.0,86,0.00,,,0.00,Wunderground v.1.15,2013-08-11 00:45:00,
2013-08-10 19:50:00,83.4,78.8,30.05,North,32767,0.0,0.0,86,0.00,,,0.00,Wunderground v.1.15,2013-08-11 00:50:00,
2013-08-10 19:55:00,83.3,79.0,30.05,North,32767,0.0,0.0,87,0.00,,,0.00,Wunderground v.1.15,2013-08-11 00:55:00,
2013-08-10 20:00:00,83.2,78.9,30.05,North,32767,0.0,0.0,87,0.00,,,0.00,Wunderground v.1.15,2013-08-11 01:00:00,
2013-08-10 20:05:00,83.2,78.9,30.05,North,32767,0.0,0.0,87,0.00,,,0.00,Wunderground v.1.15,2013-08-11 01:05:00,
2013-08-10 20:10:00,83.1,79.2,30.05,North,32767,0.0,0.0,88,0.00,,,0.00,Wunderground v.1.15,2013-08-11 01:10:00,
2013-08-10 20:15:00,83.0,79.1,30.05,North,32767,0.0,0.0,88,0.00,,,0.00,Wunderground v.1.15,2013-08-11 01:15:00,
2013-08-10 20:20:00,83.0,79.1,30.05,North,32767,0.0,0.0,88,0.00,,,0.00,Wunderground v.1.15,2013-08-11 01:20:00,
2013-08-10 20:25:00,83.0,79.4,30.05,North,32767,0.0,0.0,89,0.00,,,0.00,Wunderground v.1.15,2013-08-11 01:25:00,
2013-08-10 20:30:00,82.9,79.3,30.05,North,32767,0.0,0.0,89,0.00,,,0.00,Wunderground v.1.15,2013-08-11 01:30:00,
2013-08-10 20:35:00,82.8,79.2,30.05,North,32767,0.0,0.0,89,0.00,,,0.00,Wunderground v.1.15,2013-08-11 01:35:00,
2013-08-10 20:40:00,82.8,79.2,30.06,North,32767,0.0,0.0,89,0.00,,,0.00,Wunderground v.1.15,2013-08-11 01:40:00,
2013-08-10 20:45:00,82.8,79.2,30.05,North,32767,0.0,0.0,89,0.00,,,0.00,Wunderground v.1.15,2013-08-11 01:45:00,
2013-08-10 20:50:00,82.7,79.1,30.05,North,32767,0.0,0.0,89,0.00,,,0.00,Wunderground v.1.15,2013-08-11 01:50:00,
2013-08-10 20:55:00,82.7,79.1,30.05,North,32767,0.0,0.0,89,0.00,,,0.00,Wunderground v.1.15,2013-08-11 01:55:00,
2013-08-10 21:00:00,82.6,79.0,30.05,North,32767,0.0,0.0,89,0.00,,,0.00,Wunderground v.1.15,2013-08-11 02:00:00,
2013-08-10 21:05:00,82.6,79.4,30.06,North,32767,0.0,0.0,90,0.00,,,0.00,Wunderground v.1.15,2013-08-11 02:05:00,
2013-08-10 21:10:00,82.6,79.4,30.06,North,32767,0.0,0.0,90,0.00,,,0.00,Wunderground v.1.15,2013-08-11 02:10:00,
2013-08-10 21:15:00,82.6,79.4,30.06,North,32767,0.0,0.0,90,0.00,,,0.00,Wunderground v.1.15,2013-08-11 02:15:00,
2013-08-10 21:20:00,82.6,79.4,30.06,North,32767,0.0,0.0,90,0.00,,,0.00,Wunderground v.1.15,2013-08-11 02:20:00,
2013-08-10 21:25:00,82.6,79.4,30.06,North,32767,0.0,0.0,90,0.00,,,0.00,Wunderground v.1.15,2013-08-11 02:25:00,
2013-08-10 21:30:00,82.6,79.4,30.06,North,32767,0.0,0.0,90,0.00,,,0.00,Wunderground v.1.15,2013-08-11 02:30:00,
2013-08-10 21:35:00,82.6,79.0,30.06,North,32767,0.0,0.0,89,0.00,,,0.00,Wunderground v.1.15,2013-08-11 02:35:00,
2013-08-10 21:40:00,82.6,79.4,30.06,North,32767,0.0,0.0,90,0.00,,,0.00,Wunderground v.1.15,2013-08-11 02:40:00,
2013-08-10 21:45:00,82.6,79.0,30.07,North,32767,0.0,0.0,89,0.00,,,0.00,Wunderground v.1.15,2013-08-11 02:45:00,
2013-08-10 21:50:00,82.5,78.9,30.07,North,32767,0.0,0.0,89,0.00,,,0.00,Wunderground v.1.15,2013-08-11 02:50:00,
2013-08-10 21:55:00,82.6,79.0,30.07,North,32767,0.0,0.0,89,0.00,,,0.00,Wunderground v.1.15,2013-08-11 02:55:00,
2013-08-10 22:00:00,82.6,79.0,30.07,North,32767,0.0,0.0,89,0.00,,,0.00,Wunderground v.1.15,2013-08-11 03:00:00,
2013-08-10 22:10:00,82.6,78.7,30.07,North,32767,0.0,0.0,88,0.00,,,0.00,Wunderground v.1.15,2013-08-11 03:10:00,
2013-08-10 22:20:00,82.6,78.7,30.06,North,32767,0.0,0.0,88,0.00,,,0.00,Wunderground v.1.15,2013-08-11 03:20:00,
2013-08-10 22:25:00,82.6,79.0,30.06,North,32767,0.0,0.0,89,0.00,,,0.00,Wunderground v.1.15,2013-08-11 03:25:00,
2013-08-10 22:30:00,82.6,78.7,30.06,North,32767,0.0,0.0,88,0.00,,,0.00,Wunderground v.1.15,2013-08-11 03:30:00,
2013-08-10 22:35:00,82.6,79.0,30.06,North,32767,0.0,0.0,89,0.00,,,0.00,Wunderground v.1.15,2013-08-11 03:35:00,
2013-08-10 22:40:00,82.6,79.0,30.06,North,32767,0.0,0.0,89,0.00,,,0.00,Wunderground v.1.15,2013-08-11 03:40:00,
2013-08-10 22:45:00,82.7,79.1,30.06,North,32767,0.0,0.0,89,0.00,,,0.00,Wunderground v.1.15,2013-08-11 03:45:00,
2013-08-10 22:50:00,82.7,79.1,30.06,North,32767,0.0,0.0,89,0.00,,,0.00,Wunderground v.1.15,2013-08-11 03:50:00,
2013-08-10 22:55:00,82.7,79.1,30.06,North,32767,0.0,0.0,89,0.00,,,0.00,Wunderground v.1.15,2013-08-11 03:55:00,
2013-08-10 23:00:00,82.7,79.1,30.06,North,32767,0.0,0.0,89,0.00,,,0.00,Wunderground v.1.15,2013-08-11 04:00:00,
2013-08-10 23:05:00,82.8,79.2,30.06,North,32767,0.0,0.0,89,0.00,,,0.00,Wunderground v.1.15,2013-08-11 04:05:00,
2013-08-10 23:15:00,82.8,79.6,30.05,North,32767,0.0,0.0,90,0.00,,,0.00,Wunderground v.1.15,2013-08-11 04:15:00,
2013-08-10 23:20:00,82.8,79.2,30.05,North,32767,0.0,0.0,89,0.00,,,0.00,Wunderground v.1.15,2013-08-11 04:20:00,
2013-08-10 23:25:00,82.8,79.2,30.06,North,32767,0.0,0.0,89,0.00,,,0.00,Wunderground v.1.15,2013-08-11 04:25:00,
2013-08-10 23:30:00,82.8,79.6,30.06,North,32767,0.0,0.0,90,0.00,,,0.00,Wunderground v.1.15,2013-08-11 04:30:00,
2013-08-10 23:35:00,82.8,79.2,30.06,North,32767,0.0,0.0,89,0.00,,,0.00,Wunderground v.1.15,2013-08-11 04:35:00,
2013-08-10 23:45:00,82.9,79.0,30.06,North,32767,0.0,0.0,88,0.00,,,0.00,Wunderground v.1.15,2013-08-11 04:45:00,
2013-08-10 23:50:00,82.9,79.0,30.06,North,32767,0.0,0.0,88,0.00,,,0.00,Wunderground v.1.15,2013-08-11 04:50:00,
2013-08-10 23:55:00,82.9,79.0,30.06,North,32767,0.0,0.0,88,0.00,,,0.00,Wunderground v.1.15,2013-08-11 04:55:00,